Location: Austin
(30.3000°N, 97.7500°W)
Time: 00:00:27
(UTC-05:00)

Cosmos 2322 Rocket - Pass Details

Date: 08 April 2026
Orbit: 833 x 848 km, 71.0° (Epoch: 20 April)

Event Time Altitude Azimuth Distance (km) Brightness Sun altitude
Rises 21:12:11 0° 212° (SSW) 3,370 5.5 -17.1°
Reaches altitude 10° 21:14:41 10° 217° (SW) 2,437 4.8 -17.6°
Maximum altitude 21:20:06 50° 292° (WNW) 1,046 3.1 -18.7°
Drops below altitude 10° 21:25:32 10° 8° (N) 2,443 4.8 -19.8°
Sets 21:28:03 0° 14° (NNE) 3,380 5.4 -20.3°
